RH
90 83 88 89 87 85 82 78 94 97 97 97 97 100 97 92 71 45 26 19 25 34 63 58 21 9 9 12 18 19 17 18 16 16 17 17 19 22 27 25 21 19 20
91 79 76 75 89 94 86 75 90 98 97 98 98 97 96 88 64 36 30 31 24 28 49 62 53 16 9 10 16 19 19 18 17 15 15 16 17 17 18 18 19 19 19
97 88 56 57 63 77 88 88 74 85 96 98 98 98 97 96 86 48 38 35 33 30 29 45 62 52 18 11 11 15 18 18 18 16 14 15 15 16 17 17 18 18 20
49 70 89 81 64 56 68 84 90 78 98 96 97 99 98 99 96 73 48 38 45 34 28 26 41 63 58 25 15 11 12 15 16 16 13 14 14 15 16 17 18 20 22
40 38 36 40 58 58 48 79 83 90 94 97 98 98 99 100 96 91 64 52 44 38 32 29 24 26 46 58 37 21 12 11 13 14 13 12 14 14 15 17 20 23 24
45 43 36 32 30 31 34 37 70 87 96 97 99 98 99 98 100 97 83 83 64 52 56 44 38 33 25 25 46 47 28 14 11 11 11 10 12 14 15 16 18 21 24
59 46 42 39 32 31 33 35 34 58 100 98 94 99 99 100 98 98 100 100 95 74 61 63 45 38 30 26 25 49 68 45 20 14 13 12 12 13 15 16 19 21 25
60 56 50 48 40 34 31 34 35 33 43 94 100 99 99 100 100 99 97 100 97 83 81 72 61 52 39 28 27 28 43 74 57 22 20 20 20 19 18 18 19 26 30
91 72 57 51 47 39 33 33 35 35 32 32 84 97 98 98 96 98 91 88 80 84 85 75 76 65 45 34 26 26 31 39 71 82 54 26 27 28 27 26 26 28 32
100 98 74 57 47 41 36 33 34 38 35 34 31 34 63 96 100 100 100 61 94 100 89 72 86 86 57 42 33 28 27 31 36 41 74 80 36 33 31 32 35 36 38
100 100 86 64 53 45 40 37 37 38 41 40 36 36 34 32 37 59 55 59 100 95 92 95 92 89 58 51 46 37 33 30 30 33 36 49 70 83 89 56 40 40 38
99 100 90 78 69 50 46 43 43 48 49 46 38 35 35 35 30 27 29 64 97 72 61 91 94 79 69 41 57 54 37 34 35 34 34 38 45 53 59 68 77 79 75
99 90 93 89 82 70 57 58 52 50 54 51 51 44 39 40 39 38 47 57 51 63 70 69 54 34 32 39 55 62 75 33 38 40 41 43 42 44 48 52 55 60 64
100 100 87 99 100 96 91 71 68 64 60 60 56 54 48 43 42 43 44 87 100 48 40 40 37 38 40 39 36 36 39 37 41 44 44 48 54 60 64 65 67 70 73
100 100 100 97 96 100 96 97 89 78 77 73 70 63 52 47 44 45 47 46 43 50 71 83 48 46 41 41 38 39 43 46 48 54 59 65 74 83 86 86 87 92 98
100 100 100 100 88 81 86 84 87 94 93 87 88 79 68 56 51 79 52 87 100 100 96 50 48 47 50 55 61 61 59 57 66 87 92 95 100 100 100 99 100 100 100
91 100 100 100 100 88 88 89 81 94 100 100 99 100 93 84 87 100 100 76 69 62 60 61 57 59 64 71 75 70 74 79 87 96 100 100 100 100 99 97 96 97 96
93 98 100 100 100 100 98 100 87 93 94 99 97 99 100 100 98 90 82 76 78 80 82 85 81 71 72 80 98 98 99 100 100 100 100 100 100 98 88 90 92 86 82
100 100 100 100 100 100 100 96 88 99 100 100 100 100 100 100 100 100 100 98 100 100 95 92 97 99 98 98 100 100 100 100 100 100 100 99 93 88 86 84 86 87 88
100 100 97 100 100 100 100 100 100 95 100 99 100 100 100 100 100 100 100 100 99 100 100 100 100 100 100 100 100 100 99 100 99 94 92 90 87 84 84 90 84 79 70
100 100 100 99 100 100 100 100 100 96 100 100 100 99 100 100 100 100 100 100 100 100 100 100 100 100 100 100 100 100 99 100 99 94 93 94 96 90 79 70 60 50 42
82 100 98 100 100 100 100 100 100 100 100 100 100 100 100 100 100 100 100 100 100 100 100 100 100 99 95 93 92 95 100 100 100 100 94 82 72 62 50 41 36 30 25
48 87 100 100 100 99 100 100 100 100 98 100 100 100 100 100 100 100 100 100 100 100 100 100 99 100 100 100 100 100 99 96 88 75 67 53 42 34 26 20 15 11 8
99 78 100 100 100 98 100 100 100 99 97 94 100 100 100 100 100 100 100 100 100 100 100 100 100 100 100 100 98 96 86 74 60 47 34 26 18 13 8 6 4 3 3
95 85 100 100 100 100 100 100 100 100 100 100 100 100 100 100 100 100 100 100 100 100 100 100 100 100 99 97 89 71 51 36 27 19 12 8 5 4 3 3 3 4 4
100 100 100 100 100 100 100 100 100 100 100 100 100 100 100 100 100 100 100 100 100 100 100 99 98 96 91 68 42 28 18 12 8 5 4 3 4 4 4 4 5 5 6
Wind_Speed
49 44 41 43 46 46 45 50 51 46 41 48 40 39 41 37 33 31 29 29 32 33 35 37 36 37 37 38 37 35 32 30 29 28 27 28 29 28 29 28 27 29 28
44 44 43 42 41 48 50 48 42 39 42 43 49 46 41 34 32 31 29 28 31 34 36 37 37 37 39 40 41 39 36 34 33 32 31 30 30 31 32 31 31 30 30
39 42 46 45 44 44 47 53 54 50 43 45 40 43 38 35 32 32 30 28 28 32 35 37 36 36 39 40 42 42 41 38 37 36 35 34 32 34 34 35 34 33 32
44 42 44 47 48 47 46 47 55 54 37 55 42 34 42 38 35 32 32 32 29 30 33 34 36 37 39 40 42 43 43 42 41 40 39 38 37 36 35 36 36 37 36
44 45 47 50 51 50 50 49 50 53 55 42 47 44 39 38 41 35 34 32 30 31 30 29 32 38 39 39 42 42 42 45 44 44 42 42 41 39 39 39 39 39 39
44 43 45 48 50 52 52 50 51 51 51 50 43 37 39 39 42 41 37 35 34 34 33 32 33 35 38 38 40 40 41 44 44 46 46 45 45 44 43 42 42 43 42
42 43 42 42 46 48 49 51 52 51 50 44 55 39 40 45 44 44 41 37 37 35 36 35 35 33 35 37 40 43 48 40 41 45 46 46 46 47 47 46 46 46 46
41 42 41 40 41 45 48 50 53 54 54 52 48 45 47 38 38 38 37 38 40 39 38 39 39 35 34 37 39 42 42 51 45 42 45 45 45 47 48 50 50 49 49
38 40 41 42 42 43 46 48 51 53 54 54 58 54 55 51 49 53 51 43 45 43 42 41 41 39 37 37 39 41 41 43 48 53 45 44 45 46 48 50 51 52 52
35 37 39 41 42 44 46 48 49 52 54 55 55 54 53 52 39 40 41 46 50 44 43 43 43 41 41 39 40 40 41 42 42 44 49 50 42 43 47 49 51 52 53
34 36 37 40 42 45 48 50 50 51 52 53 55 55 55 56 58 56 58 49 46 48 45 45 45 43 43 43 42 41 41 42 43 44 44 46 50 53 56 52 50 51 53
33 38 37 40 39 41 45 49 50 50 51 53 55 56 56 56 54 56 54 52 59 56 52 56 50 47 48 47 46 44 43 43 44 43 44 45 46 48 49 52 54 57 57
36 39 40 39 37 40 43 44 48 52 52 52 52 53 54 55 54 52 52 53 55 54 53 51 49 49 51 51 50 48 47 46 46 46 47 48 48 49 51 52 54 56 57
36 40 43 42 40 42 43 46 46 46 49 50 50 50 49 50 50 50 50 43 49 52 49 49 49 50 50 50 50 50 49 49 47 48 50 50 51 52 52 54 55 56 58
38 39 41 46 48 46 45 42 43 43 43 43 44 45 45 47 46 44 46 49 50 47 45 50 50 50 50 48 49 48 48 47 48 48 49 49 50 51 52 54 55 57 59
41 39 43 49 49 53 51 45 42 41 40 41 40 41 43 43 44 48 47 43 45 48 54 52 50 49 48 46 45 46 46 45 45 46 47 48 49 51 53 54 56 58 61
49 48 39 42 47 45 43 44 44 43 41 40 40 38 38 40 41 48 49 49 49 49 46 44 42 41 41 42 42 42 42 43 43 45 48 49 50 53 55 57 59 61 62
51 46 46 42 42 39 43 42 40 45 42 38 37 38 39 40 41 41 42 41 40 39 37 37 38 40 40 38 39 39 41 44 46 48 50 52 52 54 56 59 61 62 65
48 48 49 46 49 41 48 39 37 36 31 31 33 35 36 37 39 40 40 38 37 38 38 38 37 38 39 40 43 43 45 48 48 49 50 54 57 59 61 62 64 66 68
50 49 49 49 49 49 40 45 46 41 36 33 34 34 34 35 34 32 33 35 34 35 36 38 40 41 41 42 43 46 46 47 49 52 54 57 59 61 62 64 65 67 69
56 52 53 53 45 48 46 48 43 40 39 38 36 33 30 31 34 35 36 37 38 38 39 42 42 41 42 44 45 46 47 49 52 54 57 58 59 61 63 65 68 72 75
71 52 58 56 54 50 45 44 47 47 48 42 34 37 38 41 39 40 40 39 39 38 41 42 42 43 43 43 44 46 48 50 53 54 55 58 60 63 67 71 75 79 83
54 68 56 59 56 48 47 39 44 39 44 47 48 40 36 37 39 40 42 43 43 44 45 44 43 41 41 42 43 46 49 51 53 55 57 61 64 67 72 76 80 84 87
46 57 56 56 55 54 52 44 41 37 43 47 45 39 39 39 38 37 37 38 40 41 40 40 40 40 41 42 45 47 49 50 53 57 60 64 69 73 76 79 82 84 85
46 49 55 52 58 57 61 52 39 33 42 42 44 42 38 38 37 37 37 37 36 35 37 39 40 40 41 42 43 44 48 51 56 60 65 68 71 74 76 78 80 82 84
41 47 53 44 50 50 51 49 45 43 44 45 40 40 38 36 36 34 33 35 36 37 38 38 38 37 37 39 42 46 50 54 58 62 65 66 68 70 72 74 76 77 78
Wind_Direction
222 223 225 226 229 232 232 234 232 234 233 242 236 243 243 248 252 255 253 249 247 248 248 248 247 246 246 245 245 248 250 249 251 255 254 254 253 253 254 257 256 260 263
230 226 227 229 227 231 232 232 229 236 230 228 236 245 243 243 248 253 256 253 250 249 248 249 249 247 246 246 246 248 251 250 252 253 253 255 255 256 258 258 259 258 261
233 230 233 234 233 233 234 232 235 235 222 238 232 233 237 241 246 252 256 256 255 254 252 252 255 253 250 248 247 247 250 252 253 255 255 254 254 257 260 261 262 263 262
236 235 235 237 237 238 239 237 235 236 236 244 235 243 253 237 245 250 254 255 256 257 256 254 256 257 257 254 251 250 250 252 253 255 256 256 254 256 257 260 262 264 265
238 238 237 236 241 241 239 241 240 237 241 242 226 240 241 236 243 242 249 255 255 254 254 256 258 259 259 257 257 255 254 253 254 256 257 256 256 255 256 257 259 261 263
244 242 240 239 238 240 241 239 239 240 235 236 233 236 248 244 250 244 245 251 255 256 259 260 260 260 261 259 256 256 257 256 256 256 256 256 256 256 256 257 258 260 262
245 246 246 245 244 243 241 240 239 240 235 240 247 244 250 254 244 248 244 251 255 258 259 263 263 263 263 262 260 259 259 262 263 261 259 256 256 257 258 258 258 260 261
244 246 247 246 244 245 244 241 240 239 237 238 232 240 241 236 246 251 248 254 257 260 261 265 266 267 268 265 261 260 259 258 263 265 264 262 260 260 260 260 261 261 262
240 242 244 244 242 242 243 243 240 241 241 239 240 240 244 254 258 252 256 256 256 258 256 261 265 267 267 266 264 262 260 258 260 261 267 267 265 264 264 264 265 265 266
235 237 241 241 240 240 241 241 240 240 240 241 243 243 241 239 244 251 246 259 264 252 258 261 264 265 268 265 263 263 262 260 260 262 264 262 266 268 268 268 268 268 269
243 239 236 239 240 238 239 240 241 239 238 241 243 244 245 244 247 244 253 251 253 259 264 259 262 266 266 266 264 265 265 264 262 262 262 263 266 266 266 267 269 270 270
234 233 237 240 239 237 239 240 242 244 242 239 240 243 246 246 247 247 247 249 253 260 259 259 265 267 268 266 264 265 267 265 263 264 265 264 265 266 268 268 268 270 271
239 234 232 235 235 232 234 238 240 242 243 243 242 242 241 243 245 248 247 249 253 257 261 264 266 264 263 262 263 264 264 264 263 262 263 265 266 267 267 268 269 270 271
237 234 235 234 229 228 232 235 237 240 244 245 244 244 243 243 244 245 248 251 249 260 260 261 262 262 264 264 265 265 265 264 264 263 264 265 266 267 268 269 271 272 274
237 234 232 232 233 231 233 237 240 240 242 244 244 244 244 245 245 248 250 249 253 257 262 264 264 265 265 266 265 265 265 265 265 266 267 269 271 272 273 274 275 275 275
239 239 234 230 234 237 238 237 240 241 241 241 241 241 241 241 242 239 248 252 253 252 258 262 263 263 265 267 269 268 268 268 269 269 271 273 273 274 275 277 279 279 279
239 240 235 236 238 236 240 239 239 239 240 240 238 238 240 244 240 242 247 251 254 256 260 264 264 266 266 265 267 268 269 269 270 271 273 274 276 277 279 281 282 282 282
236 237 236 236 229 232 236 231 241 240 238 239 238 239 240 240 242 244 246 249 253 257 260 260 260 263 266 266 266 268 270 272 272 275 277 277 279 285 285 285 283 283 283
222 223 232 237 224 235 230 228 230 225 227 233 240 243 242 242 243 245 247 251 253 255 258 262 263 265 267 268 269 270 273 275 278 280 281 284 285 286 286 286 286 287 287
218 218 233 240 232 234 224 231 231 233 234 239 239 241 242 244 243 244 247 249 252 256 259 260 262 265 268 269 271 277 279 279 279 281 284 285 286 287 286 287 287 287 288
221 220 221 231 230 233 233 229 228 227 230 235 240 245 242 242 236 242 252 252 253 257 259 260 266 270 273 272 273 276 278 279 280 282 284 284 286 288 290 291 291 291 291
234 224 221 223 229 228 231 231 228 230 230 233 241 235 242 242 247 252 254 256 259 257 256 262 267 273 274 273 275 276 276 278 283 286 289 291 292 292 293 293 293 293 292
229 229 223 221 222 230 236 228 223 224 225 230 232 239 244 247 253 253 253 255 257 257 263 264 268 270 274 277 280 282 284 285 289 291 292 292 293 293 293 292 292 292 292
214 227 225 220 217 224 224 226 226 229 230 225 229 240 246 247 250 254 257 256 255 257 261 265 270 276 279 281 282 284 287 289 291 292 293 294 294 294 295 295 295 294 294
217 218 220 226 221 223 221 225 218 234 228 228 232 237 240 245 250 255 257 257 258 260 264 269 273 277 280 283 285 288 290 292 294 295 296 297 297 296 297 297 298 298 299
209 211 217 226 226 219 217 218 224 223 229 225 231 235 238 245 248 252 255 257 260 265 268 271 276 279 283 286 290 292 294 297 298 298 297 298 299 300 301 302 303 303 302